User: anonymous   Login
Location: Grand Lay
(47.3253°N, 0.9468°E)
Time: 13:36:04
(UTC+00:00)
Language:

SL-8 Rocket - Orbit

View from above orbital plane
View from above orbital plane
View from above satellite
View from above satellite

Ground track
Ground track

The orbit is defined by the following mean orbital elements,

1 21088U          26073.27150141 +.00000000 +00000-0 +47841-4 0 00009
2 21088  82.9464 166.6399 0022811  25.8665  27.4491 13.77494874    01
Epoch (UTC): 14 March 2026 06:30:57
Eccentricity: 0.0022811
inclination: 82.9464°
perigee height: 956 km
apogee height: 990 km
right ascension of ascending node: 166.6399°
argument of perigee: 25.8665°
revolutions per day: 13.77494874
mean anomaly at epoch: 27.4491°

The dashed part of the orbit path shows where the satellite is in the earth's shadow,  

DLR